This demonstration page uses our WeatherBlox Daily Observations layout. Learn more.

Left ArrowRight Arrow

Hourly Observations for October 13, 2020

Temp ( °F °C ) Dew Point ( °F °C ) Humidity (%) Winds ( mph kmh ) Pressure ( in mb ) Visibility ( mi km ) Precip ( " mm )
12:53 am 00:53 Clear 59 15 24 -4.4 26 26 ESE 5 7 30.05 1018 10 16 0.00 0.00
1:53 am 01:53 Clear 55 12.8 25 -3.9 31 31 ENE 3 6 30.04 1017 10 16 0.00 0.00
2:53 am 02:53 Clear 54 12.2 24 -4.4 31 31 Calm 30.04 1017 10 16 0.00 0.00
3:53 am 03:53 Clear 52 11.1 24 -4.4 34 34 SE 8 13 30.03 1017 10 16 0.00 0.00
4:53 am 04:53 Clear 49 9.4 23 -5 36 36 N 6 9 30.04 1017 10 16 0.00 0.00
5:53 am 05:53 Clear 47 8.3 24 -4.4 41 41 N 7 11 30.05 1018 10 16 0.00 0.00
6:53 am 06:53 Clear 46 7.8 24 -4.4 42 42 N 7 11 30.05 1018 10 16 0.00 0.00
7:53 am 07:53 Clear 46 7.8 24 -4.4 42 42 NNW 7 11 30.07 1018 10 16 0.00 0.00
8:53 am 08:53 Sunny 51 10.6 27 -2.8 39 39 N 3 6 30.09 1019 10 16 0.00 0.00
9:53 am 09:53 Sunny 63 17.2 30 -1.1 29 29 E 3 6 30.09 1019 10 16 0.00 0.00
10:53 am 10:53 Sunny 70 21.1 31 -0.6 23 23 SE 6 9 30.09 1019 10 16 0.00 0.00
11:53 am 11:53 Sunny 77 25 33 0.6 20 20 ESE 3 6 30.08 1019 10 16 0.00 0.00
12:53 pm 12:53 Sunny 83 28.3 33 0.6 17 17 Calm 30.06 1018 10 16 0.00 0.00
1:53 pm 13:53 Sunny 86 30 32 0 14 14 Calm 30.03 1017 10 16 0.00 0.00
2:53 pm 14:53 Sunny 89 31.7 31 -0.6 12 12 SSW 5 7 29.99 1016 10 16 0.00 0.00
3:53 pm 15:53 Sunny 91 32.8 29 -1.7 11 11 Calm 29.97 1015 10 16 0.00 0.00
4:53 pm 16:53 Sunny 91 32.8 29 -1.7 11 11 SE 3 6 29.97 1015 10 16 0.00 0.00
5:53 pm 17:53 Sunny 91 32.8 29 -1.7 11 11 S 9 15 29.96 1015 10 16 0.00 0.00
6:53 pm 18:53 Sunny 88 31.1 28 -2.2 11 11 S 9 15 29.96 1015 10 16 0.00 0.00
7:53 pm 19:53 Clear 78 25.6 28 -2.2 16 16 SE 9 15 29.98 1015 10 16 0.00 0.00
8:53 pm 20:53 Clear 77 25 32 0 19 19 SE 9 15 29.98 1015 10 16 0.00 0.00
9:53 pm 21:53 Clear 73 22.8 40 4.4 30 30 SE 8 13 29.98 1015 10 16 0.00 0.00
10:53 pm 22:53 Clear 69 20.6 42 5.6 38 38 SE 9 15 29.99 1016 10 16 0.00 0.00
11:53 pm 23:53 Clear 67 19.4 44 6.7 44 44 SE 9 15 29.98 1015 10 16 0.00 0.00

Powered by AerisWeather